TimeCDT,TemperatureF,Dew PointF,Humidity,Sea Level PressureIn,VisibilityMPH,Wind Direction,Wind SpeedMPH,Gust SpeedMPH,PrecipitationIn,Events,Conditions,WindDirDegrees,DateUTC
12:54 AM,57.0,55.9,96,29.92,10.0,WSW,4.6,-,N/A,,Mostly Cloudy,240,2013-06-06 05:54:00
1:54 AM,54.0,53.1,97,29.91,10.0,Calm,Calm,-,N/A,,Scattered Clouds,0,2013-06-06 06:54:00
2:54 AM,52.0,52.0,100,29.90,10.0,Calm,Calm,-,N/A,,Clear,0,2013-06-06 07:54:00
3:21 AM,51.8,51.8,100,29.89,10.0,WNW,3.5,-,N/A,,Partly Cloudy,300,2013-06-06 08:21:00
3:40 AM,51.8,51.8,100,29.89,1.2,NNE,4.6,-,N/A,,Mostly Cloudy,20,2013-06-06 08:40:00
3:45 AM,53.6,53.6,100,29.89,0.5,Calm,Calm,-,N/A,Fog,Fog,0,2013-06-06 08:45:00
3:52 AM,53.6,53.6,100,29.89,0.2,Calm,Calm,-,N/A,Fog,Fog,0,2013-06-06 08:52:00
3:54 AM,54.0,53.1,97,29.89,0.2,Calm,Calm,-,N/A,Fog,Fog,0,2013-06-06 08:54:00
4:10 AM,53.6,53.6,100,29.89,0.2,WNW,3.5,-,N/A,Fog,Fog,300,2013-06-06 09:10:00
4:19 AM,55.4,55.4,100,29.89,0.8,Calm,Calm,-,N/A,,Mist,0,2013-06-06 09:19:00
4:54 AM,55.0,55.0,100,29.89,0.5,Calm,Calm,-,N/A,Fog,Fog,0,2013-06-06 09:54:00
5:31 AM,55.4,55.4,100,29.89,0.2,NW,3.5,-,N/A,Fog,Fog,320,2013-06-06 10:31:00
5:54 AM,55.9,55.9,100,29.90,0.2,NNW,3.5,-,N/A,Fog,Fog,330,2013-06-06 10:54:00
6:32 AM,57.2,57.2,100,29.90,0.5,NNW,4.6,-,N/A,Fog,Fog,330,2013-06-06 11:32:00
6:54 AM,57.9,57.0,97,29.90,1.8,NNW,3.5,-,N/A,,Overcast,340,2013-06-06 11:54:00
7:02 AM,57.2,57.2,100,29.91,2.0,NNW,4.6,-,N/A,,Overcast,340,2013-06-06 12:02:00
7:12 AM,57.2,57.2,100,29.91,3.0,NNW,5.8,-,N/A,,Overcast,340,2013-06-06 12:12:00
7:46 AM,57.2,55.4,94,29.91,8.0,NNE,9.2,-,N/A,,Mostly Cloudy,20,2013-06-06 12:46:00
7:54 AM,59.0,57.0,93,29.91,8.0,NNE,9.2,-,N/A,,Mostly Cloudy,20,2013-06-06 12:54:00
8:25 AM,59.0,55.4,88,29.93,10.0,North,8.1,-,N/A,,Overcast,350,2013-06-06 13:25:00
8:35 AM,59.0,55.4,88,29.92,10.0,North,6.9,-,N/A,,Overcast,360,2013-06-06 13:35:00
8:52 AM,60.8,55.4,82,29.92,10.0,North,9.2,-,N/A,,Overcast,10,2013-06-06 13:52:00
8:54 AM,61.0,55.9,83,29.92,10.0,North,9.2,-,N/A,,Overcast,10,2013-06-06 13:54:00
9:39 AM,62.6,55.4,77,29.93,10.0,North,9.2,-,N/A,,Overcast,350,2013-06-06 14:39:00
9:54 AM,64.0,55.9,75,29.92,10.0,North,8.1,-,N/A,,Overcast,360,2013-06-06 14:54:00
10:54 AM,64.9,55.9,73,29.91,10.0,NNW,13.8,-,N/A,,Overcast,330,2013-06-06 15:54:00
11:54 AM,66.9,54.0,63,29.91,10.0,North,8.1,-,N/A,,Scattered Clouds,360,2013-06-06 16:54:00
12:54 PM,64.9,53.1,65,29.91,10.0,NNW,15.0,20.7,N/A,,Mostly Cloudy,330,2013-06-06 17:54:00
1:54 PM,69.1,55.0,61,29.91,10.0,NNW,16.1,-,N/A,,Clear,340,2013-06-06 18:54:00
2:54 PM,70.0,53.1,55,29.91,10.0,NW,13.8,-,N/A,,Scattered Clouds,320,2013-06-06 19:54:00
3:54 PM,66.9,52.0,59,29.92,10.0,NNW,12.7,19.6,N/A,,Overcast,340,2013-06-06 20:54:00
4:54 PM,69.1,54.0,58,29.91,10.0,NW,15.0,-,N/A,,Mostly Cloudy,320,2013-06-06 21:54:00
5:54 PM,66.0,52.0,60,29.92,10.0,NW,13.8,-,N/A,,Overcast,320,2013-06-06 22:54:00
6:54 PM,64.0,54.0,70,29.93,10.0,North,15.0,-,N/A,,Overcast,350,2013-06-06 23:54:00
7:54 PM,62.1,54.0,75,29.94,10.0,North,10.4,-,N/A,,Mostly Cloudy,10,2013-06-07 00:54:00
8:11 PM,60.8,55.4,82,29.94,10.0,NNE,8.1,-,N/A,,Overcast,30,2013-06-07 01:11:00
8:54 PM,60.1,54.0,80,29.94,10.0,NNE,9.2,-,N/A,,Overcast,20,2013-06-07 01:54:00
9:19 PM,60.8,55.4,82,29.95,10.0,North,5.8,-,N/A,,Overcast,10,2013-06-07 02:19:00
9:40 PM,60.8,55.4,82,29.96,10.0,NE,8.1,-,N/A,,Overcast,40,2013-06-07 02:40:00
9:54 PM,59.0,54.0,83,29.96,10.0,NE,8.1,-,N/A,,Overcast,50,2013-06-07 02:54:00
10:54 PM,57.9,54.0,87,29.96,10.0,NNE,5.8,-,N/A,,Overcast,30,2013-06-07 03:54:00
11:54 PM,55.9,53.1,90,29.97,10.0,North,5.8,-,N/A,,Overcast,360,2013-06-07 04:54:00